PDT,Max TemperatureF,Mean TemperatureF,Min TemperatureF,Max Dew PointF,MeanDew PointF,Min DewpointF,Max Humidity, Mean Humidity, Min Humidity, Max Sea Level PressureIn, Mean Sea Level PressureIn, Min Sea Level PressureIn, Max VisibilityMiles, Mean VisibilityMiles, Min VisibilityMiles, Max Wind SpeedMPH, Mean Wind SpeedMPH, Max Gust SpeedMPH,PrecipitationIn, CloudCover, Events, WindDirDegrees
2013-4-1,55,48,41,45,39,36,100,76,47,30.16,30.11,30.08,10,10,4,21,15,29,0.00,6,Rain,308
2013-4-2,59,50,41,45,41,37,87,71,48,30.18,30.14,30.11,10,10,8,17,12,24,0.00,4,,303
2013-4-3,73,53,33,45,37,27,93,61,18,30.18,30.14,30.10,10,10,9,18,5,22,0.00,0,,117
2013-4-4,62,52,41,48,41,30,88,67,36,30.18,30.11,30.07,10,10,8,22,8,29,0.00,3,,306
2013-4-5,55,50,46,50,44,39,100,81,63,30.16,30.12,30.09,10,9,0,23,17,30,0.00,6,Fog,305
2013-4-6,55,48,42,45,42,34,100,80,58,30.17,30.14,30.11,10,8,0,31,18,39,0.00,5,Fog,297
2013-4-7,57,50,44,45,41,37,100,72,51,30.13,30.03,29.86,10,9,0,25,19,33,0.00,4,Fog,301
2013-4-8,50,42,33,41,35,27,100,84,65,29.88,29.77,29.67,10,8,0,32,22,46,0.36,7,Rain,302
2013-4-9,55,44,32,34,27,23,81,55,30,30.14,29.99,29.88,10,10,9,21,10,28,0.00,0,,287
2013-4-10,66,46,26,30,24,16,86,42,18,30.22,30.16,30.12,10,10,10,17,7,24,0.00,0,,306
2013-4-11,66,56,46,41,36,28,71,49,32,30.13,29.97,29.88,10,10,8,20,11,26,0.00,1,,296
2013-4-12,71,54,37,45,42,36,93,66,33,29.98,29.93,29.88,10,10,9,17,7,22,0.00,0,,299
2013-4-13,68,56,44,43,36,27,81,46,23,29.97,29.89,29.84,10,10,8,28,13,37,0.00,0,,295
2013-4-14,60,53,46,45,38,27,87,58,38,29.88,29.83,29.76,10,10,8,36,20,48,0.00,0,,295
2013-4-15,53,45,37,39,34,25,93,65,37,29.85,29.79,29.74,10,10,5,38,26,52,0.00,4,,303
2013-4-16,48,40,32,30,26,21,87,61,37,30.01,29.91,29.78,10,10,5,33,24,40,0.00,4,Rain,305
2013-4-17,53,42,32,23,18,14,64,38,22,30.24,30.15,30.07,10,10,10,18,10,26,0.00,0,,299
2013-4-18,62,43,24,21,13,7,69,33,12,30.29,30.26,30.23,10,10,9,16,6,22,0.00,0,,124
2013-4-19,68,48,28,27,20,5,64,34,10,30.29,30.22,30.13,10,10,10,22,7,30,0.00,0,,295
2013-4-20,73,60,46,41,33,23,58,39,15,30.15,30.11,30.07,10,10,9,17,10,23,0.00,0,,303
2013-4-21,75,57,39,37,33,25,75,38,16,30.12,30.09,30.06,10,10,8,18,8,25,0.00,0,,299
2013-4-22,73,60,48,37,31,27,54,33,20,30.10,30.02,29.95,10,10,5,23,10,29,0.00,0,,298
2013-4-23,73,58,44,37,25,16,71,31,11,30.07,30.00,29.96,10,10,8,23,11,33,0.00,0,,124
2013-4-24,73,56,39,41,25,12,62,36,10,30.00,29.94,29.88,10,10,7,24,7,32,0.00,1,,106
2013-4-25,64,53,42,45,41,37,81,60,40,30.17,30.05,29.95,10,10,9,20,11,26,0.00,0,,306
2013-4-26,71,58,44,45,43,39,81,58,35,30.29,30.22,30.17,10,10,8,18,9,24,0.00,0,,304
2013-4-27,77,59,41,45,41,37,87,50,25,30.29,30.24,30.19,10,10,5,20,7,25,0.00,0,,298
2013-4-28,77,64,50,45,40,32,71,43,22,30.19,30.10,30.03,10,10,4,21,9,26,0.00,0,,297
2013-4-29,77,64,50,43,37,28,51,35,23,30.05,29.97,29.90,10,10,9,20,10,26,0.00,0,,304
2013-4-30,73,63,53,43,40,34,62,41,27,29.94,29.88,29.84,10,10,9,26,14,33,0.00,0,,297